George, South Africa

11:50 PM SAST on September 21, 2017 (GMT +0200)
George

Weather History for FAGG - October, 2013

Change the Weather History Date:

Tuesday, October 15, 2013

  Actual Average Record
Temperature  
Mean Temperature 64 °F -  
Max Temperature 82 °F 68 °F 82 °F (2013)
Min Temperature 47 °F 52 °F 47 °F (2013)
Growing Degree Days 14 (Base 50)    
Moisture  
Dew Point 49 °F    
Average Humidity 64    
Maximum Humidity 93    
Minimum Humidity 21    
Precipitation  
Precipitation 0.00 in - - ()
Sea Level Pressure  
Sea Level Pressure 30.00 in    
Wind  
Wind Speed 5 mph ()    
Max Wind Speed 16 mph    
Max Gust Speed -    
Visibility 9.9 miles    
Events      
Averages and records for this station are not official NWS values.
T = Trace of Precipitation, MM = Missing Value Source: Averaged Metar Reports

Daily Weather History Graph

Daily Weather History Graph

Search for Another Location

Airport or City:

Trip Planner

Search our weather history database for the weather conditions in past years. The results will help you decide how hot, cold, wet, or windy it might be!

Date:

Astronomy

Oct. 15, 2013 Rise Set
Actual Time 5:48 AM SAST 6:44 PM SAST
Civil Twilight 5:23 AM SAST 7:09 PM SAST
Nautical Twilight 4:53 AM SAST 7:40 PM SAST
Astronomical Twilight 4:22 AM SAST 8:11 PM SAST
Moon 3:20 PM SAST (10/15) 3:22 AM SAST (10/15)
Length of Visible Light 13h 46m
Length of Day
12h 55m
Waxing Gibbous, 85% of the Moon is Illuminated
Oct 15
Waxing Gibbous
Oct 19
Full
Oct 27
Last Quarter
Nov 3
New
Nov 10
First Quarter

Hourly Weather History & Observations

Time (SAST) Temp. Dew Point Humidity Pressure Visibility Wind Dir Wind Speed Gust Speed Precip Events Conditions
12:00 AM 50.0 °F 46.4 °F 87% 30.12 in - NW 3.5 mph - N/A   Clear
1:00 AM 50.0 °F 46.4 °F 87% 30.09 in - NNW 4.6 mph - N/A   Clear
2:00 AM 49 °F 46 °F 87% 30.08 in 12 mi 2.3 mph - -  
2:00 AM 50.0 °F 46.4 °F 87% 30.06 in - North 3.5 mph - N/A   Clear
3:00 AM 48.2 °F 46.4 °F 93% 30.04 in - North 3.5 mph - N/A   Clear
4:00 AM 50.0 °F 46.4 °F 87% 30.01 in - North 3.5 mph - N/A   Clear
5:00 AM 50 °F 46 °F 81% 30.00 in 12 mi 2.3 mph - -   Clear
5:00 AM 50.0 °F 46.4 °F 87% 29.98 in - Variable 2.3 mph - N/A   Clear
6:00 AM 48.2 °F 44.6 °F 87% 29.98 in - NW 4.6 mph - N/A   Clear
7:00 AM 53.6 °F 48.2 °F 82% 30.01 in - WNW 3.5 mph - N/A   Clear
8:00 AM 59 °F 51 °F 68% 30.01 in 12 mi NW 3.5 mph - -   Clear
8:00 AM 59.0 °F 51.8 °F 77% 30.01 in - NW 3.5 mph - N/A   Clear
9:00 AM 66.2 °F 51.8 °F 60% 29.98 in - WNW 4.6 mph - N/A   Clear
10:00 AM 73.4 °F 50.0 °F 44% 29.98 in - SSW 4.6 mph - N/A   Clear
11:00 AM 79 °F 50 °F 25% 29.98 in 12 mi 2.3 mph - -   Scattered Clouds
11:00 AM 78.8 °F 50.0 °F 36% 29.98 in - Variable 2.3 mph - N/A   Clear
12:00 PM 78.8 °F 50.0 °F 36% 29.92 in - SSW 4.6 mph - N/A   Clear
1:00 PM 80.6 °F 50.0 °F 34% 29.92 in - South 6.9 mph - N/A   Clear
2:00 PM 82 °F 48 °F 21% 29.87 in 12 mi SSW 9.2 mph - -   Scattered Clouds
2:00 PM 82.4 °F 48.2 °F 30% 29.89 in - South 9.2 mph - N/A   Clear
3:00 PM 77.0 °F 46.4 °F 34% 29.92 in - SSW 16.1 mph - N/A   Clear
4:00 PM 68.0 °F 51.8 °F 56% 29.95 in - SW 8.1 mph - N/A   Clear
5:00 PM 67 °F 49 °F 41% 29.96 in 12 mi SSW 9.2 mph - -   Scattered Clouds
5:00 PM 66.2 °F 48.2 °F 52% 29.98 in - SSW 8.1 mph - N/A   Clear
6:00 PM 62.6 °F 55.4 °F 77% 30.01 in 6.2 mi SW 15.0 mph - N/A   Partly Cloudy
7:00 PM 60.8 °F 53.6 °F 77% 30.04 in 6.2 mi SW 12.7 mph - N/A   Mostly Cloudy
8:00 PM 60 °F 51 °F 63% 30.09 in 12 mi WSW 12.7 mph - -   Mostly Cloudy
8:00 PM 60.8 °F 50.0 °F 68% 30.06 in 6.2 mi WSW 13.8 mph - N/A   Mostly Cloudy
11:00 PM 57.2 °F 51.8 °F 82% 30.12 in 6.2 mi West 9.2 mph - N/A   Mostly Cloudy